Total_Precipitation_Accumulation
0.91 0.92 0.94 0.89 0.87 0.89 0.93 1.06 1.25 1.23 1.00 0.82 0.81 0.84 0.86 0.86 0.92 0.84 0.74 0.86 0.90 0.90 0.93 0.98 1.00 0.98 0.96 0.96 1.02 1.10 1.20 1.30 1.40 1.53 1.63 1.71 1.87 2.13
0.76 0.81 0.83 0.84 0.87 0.92 1.00 1.09 1.22 1.37 1.28 0.98 0.86 0.85 0.88 0.87 0.91 0.76 0.68 0.81 0.78 0.77 0.78 0.79 0.80 0.80 0.81 0.85 0.89 0.94 0.97 1.03 1.15 1.31 1.49 1.64 1.78 1.91
0.71 0.73 0.74 0.78 0.86 0.91 1.00 1.09 1.18 1.30 1.33 1.10 0.90 0.83 0.82 0.77 0.72 0.63 0.57 0.56 0.54 0.64 0.63 0.63 0.65 0.68 0.67 0.70 0.78 0.84 0.88 0.94 1.02 1.16 1.33 1.49 1.61 1.71
0.73 0.76 0.77 0.81 0.89 0.96 1.02 1.07 1.11 1.13 1.15 1.04 0.85 0.75 0.68 0.61 0.57 0.52 0.48 0.45 0.42 0.53 0.53 0.53 0.56 0.58 0.55 0.55 0.61 0.69 0.77 0.85 0.92 1.00 1.10 1.19 1.31 1.45
0.75 0.79 0.81 0.86 0.90 0.91 0.91 0.92 0.91 0.89 0.88 0.86 0.73 0.63 0.58 0.54 0.52 0.47 0.43 0.40 0.37 0.40 0.42 0.42 0.47 0.53 0.52 0.53 0.58 0.63 0.65 0.65 0.68 0.72 0.81 0.92 1.04 1.15
0.82 0.84 0.84 0.85 0.84 0.82 0.80 0.77 0.75 0.76 0.75 0.77 0.73 0.63 0.57 0.52 0.52 0.49 0.43 0.38 0.36 0.33 0.37 0.38 0.43 0.50 0.50 0.47 0.45 0.44 0.45 0.50 0.55 0.60 0.66 0.74 0.82 0.90
0.89 0.86 0.82 0.84 0.82 0.77 0.72 0.69 0.69 0.72 0.76 0.80 0.77 0.66 0.54 0.47 0.43 0.39 0.39 0.38 0.37 0.35 0.38 0.38 0.38 0.37 0.35 0.37 0.40 0.41 0.44 0.49 0.56 0.64 0.69 0.74 0.79 0.86
0.88 0.82 0.77 0.78 0.74 0.74 0.72 0.71 0.73 0.79 0.88 0.91 0.80 0.63 0.45 0.38 0.38 0.43 0.48 0.55 0.50 0.34 0.37 0.38 0.36 0.35 0.33 0.33 0.42 0.46 0.49 0.51 0.53 0.58 0.63 0.65 0.68 0.75
0.72 0.66 0.62 0.59 0.61 0.56 0.61 0.68 0.71 0.79 0.80 0.73 0.63 0.47 0.40 0.40 0.51 0.63 0.60 0.57 0.46 0.32 0.40 0.47 0.41 0.38 0.34 0.37 0.45 0.43 0.45 0.47 0.50 0.55 0.56 0.57 0.60 0.65
0.53 0.48 0.45 0.44 0.45 0.49 0.53 0.61 0.57 0.55 0.54 0.49 0.47 0.46 0.46 0.48 0.59 0.73 0.70 0.64 0.50 0.40 0.42 0.51 0.42 0.40 0.37 0.38 0.43 0.44 0.48 0.51 0.54 0.57 0.56 0.56 0.57 0.61
0.36 0.36 0.37 0.35 0.43 0.55 0.58 0.60 0.50 0.43 0.45 0.50 0.55 0.57 0.59 0.56 0.56 0.67 0.75 0.81 0.68 0.48 0.41 0.43 0.39 0.37 0.38 0.37 0.41 0.47 0.46 0.45 0.44 0.45 0.45 0.47 0.50 0.58
0.30 0.32 0.40 0.41 0.51 0.61 0.56 0.56 0.49 0.41 0.43 0.46 0.44 0.43 0.41 0.43 0.48 0.52 0.73 1.01 0.87 0.64 0.42 0.50 0.52 0.57 0.70 0.45 0.40 0.41 0.41 0.42 0.44 0.44 0.44 0.43 0.46 0.52
0.29 0.30 0.33 0.45 0.53 0.58 0.53 0.44 0.49 0.56 0.51 0.47 0.46 0.44 0.41 0.39 0.39 0.39 0.53 0.96 1.19 0.86 0.44 0.77 0.95 0.68 0.78 0.56 0.39 0.38 0.37 0.44 0.51 0.52 0.55 0.58 0.60 0.67
0.29 0.26 0.31 0.46 0.50 0.48 0.43 0.43 0.51 0.51 0.41 0.44 0.46 0.44 0.44 0.43 0.42 0.43 0.47 0.57 0.76 0.85 0.60 0.91 1.31 0.94 0.97 0.74 0.43 0.36 0.35 0.46 0.64 0.70 0.71 0.80 0.86 0.89
0.34 0.36 0.36 0.37 0.36 0.37 0.40 0.42 0.42 0.38 0.39 0.44 0.45 0.41 0.38 0.40 0.42 0.44 0.45 0.45 0.46 0.48 0.53 0.65 0.96 0.95 1.03 0.94 0.61 0.42 0.44 0.47 0.60 0.76 0.85 0.93 1.03 1.07
0.40 0.42 0.40 0.35 0.32 0.30 0.33 0.33 0.31 0.32 0.40 0.46 0.45 0.41 0.39 0.40 0.42 0.45 0.52 0.53 0.56 0.47 0.43 0.46 0.57 0.81 0.91 0.68 0.72 0.65 0.59 0.67 0.67 0.78 0.92 0.98 1.09 1.24
0.48 0.39 0.37 0.33 0.30 0.29 0.29 0.28 0.28 0.30 0.34 0.36 0.43 0.46 0.43 0.41 0.39 0.41 0.52 0.59 0.65 0.55 0.45 0.39 0.39 0.46 0.60 0.70 0.73 0.63 0.63 0.74 0.86 0.95 1.07 1.05 1.04 1.24
0.48 0.38 0.33 0.32 0.31 0.28 0.28 0.28 0.28 0.31 0.35 0.41 0.45 0.47 0.50 0.49 0.46 0.42 0.48 0.58 0.59 0.50 0.48 0.45 0.44 0.50 0.52 0.53 0.62 0.73 0.76 0.85 0.90 0.92 1.04 1.15 1.09 1.06
0.38 0.33 0.31 0.32 0.32 0.32 0.33 0.34 0.33 0.32 0.39 0.47 0.50 0.51 0.53 0.50 0.48 0.48 0.48 0.51 0.49 0.45 0.46 0.47 0.56 0.82 0.85 0.57 0.45 0.66 0.97 1.05 0.94 0.93 1.01 1.18 1.32 1.15
0.29 0.27 0.28 0.30 0.34 0.38 0.42 0.45 0.46 0.43 0.44 0.46 0.48 0.49 0.53 0.57 0.52 0.48 0.47 0.51 0.53 0.48 0.43 0.39 0.47 0.83 1.20 1.02 0.78 0.69 0.79 1.05 1.23 1.30 1.17 1.05 1.13 1.07
0.25 0.26 0.28 0.32 0.38 0.44 0.49 0.52 0.55 0.56 0.54 0.56 0.53 0.52 0.56 0.63 0.56 0.46 0.47 0.46 0.52 0.52 0.47 0.37 0.34 0.49 0.79 0.95 0.81 0.61 0.70 0.79 1.08 1.53 1.51 1.28 1.09 0.96
0.28 0.30 0.33 0.37 0.45 0.51 0.54 0.55 0.56 0.53 0.55 0.57 0.55 0.54 0.57 0.64 0.63 0.55 0.53 0.54 0.51 0.50 0.47 0.37 0.32 0.38 0.59 0.83 0.72 0.55 0.56 0.57 0.59 0.71 1.13 1.67 2.09 2.08
0.33 0.36 0.38 0.43 0.48 0.53 0.54 0.52 0.51 0.49 0.52 0.60 0.61 0.59 0.61 0.62 0.58 0.59 0.57 0.57 0.58 0.52 0.48 0.43 0.37 0.37 0.42 0.53 0.61 0.54 0.47 0.45 0.45 0.51 0.76 1.06 1.37 1.58